| time (UTC) | temp F | wind direction | speed knots | gust knots | rain 1hr in | rain 24hr in | rain mn in | humidity % | barometer mb |
| 20260831145003 | 78 | 275 | 1.7 | 2.6 | 0.00 | 0.00 | 0.00 | 92 | 1000.9 |
| 20260831144504 | 78 | 275 | 1.7 | 2.6 | 0.00 | 0.00 | 0.00 | 92 | 1000.9 |
| 20260831143503 | 78 | 275 | 1.7 | 2.6 | 0.00 | 0.00 | 0.00 | 92 | 1000.8 |
| 20260831143004 | 78 | 275 | 1.7 | 2.6 | 0.00 | 0.00 | 0.00 | 92 | 1000.8 |
| 20260831142504 | 78 | 275 | 1.7 | 2.6 | 0.00 | 0.00 | 0.00 | 92 | 1000.8 |
| 20260831142004 | 78 | 275 | 1.7 | 2.6 | 0.00 | 0.00 | 0.00 | 92 | 1000.7 |
| 20260831141503 | 78 | 275 | 1.7 | 2.6 | 0.00 | 0.00 | 0.00 | 92 | 1000.8 |
| 20260831141004 | 78 | 275 | 1.7 | 2.6 | 0.00 | 0.00 | 0.00 | 92 | 1000.7 |
| 20260831140504 | 78 | 275 | 1.7 | 2.6 | 0.00 | 0.00 | 0.00 | 92 | 1000.6 |
| 20260831135503 | 78 | 275 | 1.7 | 2.6 | 0.00 | 0.00 | 0.00 | 92 | 1000.4 |
| 20260831135003 | 78 | 275 | 1.7 | 2.6 | 0.00 | 0.00 | 0.00 | 92 | 1000.4 |
| 20260831134004 | 78 | 275 | 1.7 | 2.6 | 0.00 | 0.00 | 0.00 | 92 | 1000.4 |
| 20260831133504 | 78 | 275 | 1.7 | 2.6 | 0.00 | 0.00 | 0.00 | 92 | 1000.4 |
| 20260831133004 | 78 | 275 | 1.7 | 2.6 | 0.00 | 0.00 | 0.00 | 92 | 1000.3 |
| 20260831132002 | 78 | 275 | 1.7 | 2.6 | 0.00 | 0.00 | 0.00 | 92 | 1000.3 |
| 20260831131502 | 78 | 209 | 1.7 | 5.2 | 0.00 | 0.00 | 0.00 | 93 | 1000.4 |
| 20260831131003 | 78 | 204 | 0.9 | 2.6 | 0.00 | 0.00 | 0.00 | 94 | 1000.3 |
| 20260831130502 | 77 | 154 | 0.9 | 1.7 | 0.00 | 0.00 | 0.00 | 94 | 1000.1 |
| 20260831130003 | 77 | 249 | 1.7 | 1.7 | 0.00 | 0.00 | 0.00 | 95 | 1000.1 |
| 20260831125503 | 76 | 236 | 1.7 | 2.6 | 0.00 | 0.00 | 0.00 | 95 | 1000.0 |
| 20260831124502 | 76 | 271 | 1.7 | 2.6 | 0.00 | 0.00 | 0.00 | 95 | 999.8 |
| 20260831124003 | 76 | 141 | 0.9 | 2.6 | 0.00 | 0.00 | 0.00 | 95 | 1000.0 |
| 20260831123503 | 76 | 189 | 1.7 | 2.6 | 0.00 | 0.00 | 0.00 | 95 | 1000.0 |
| 20260831123002 | 76 | 154 | 0.9 | 1.7 | 0.00 | 0.00 | 0.00 | 95 | 999.7 |
| 20260831122503 | 76 | 247 | 0.9 | 2.6 | 0.00 | 0.00 | 0.00 | 95 | 999.7 |
| 20260831122002 | 76 | 179 | 1.7 | 2.6 | 0.00 | 0.00 | 0.00 | 95 | 999.7 |
| 20260831121003 | 76 | 153 | 1.7 | 2.6 | 0.00 | 0.00 | 0.00 | 94 | 1000.0 |
| 20260831120502 | 76 | 199 | 1.7 | 2.6 | 0.00 | 0.00 | 0.00 | 94 | 1000.0 |
| 20260831120003 | 76 | 155 | 1.7 | 5.2 | 0.00 | 0.00 | 0.00 | 94 | 999.7 |
| 20260831115502 | 76 | 180 | 2.6 | 5.2 | 0.00 | 0.00 | 0.00 | 94 | 999.7 |
| 20260831115003 | 76 | 147 | 1.7 | 2.6 | 0.00 | 0.00 | 0.00 | 94 | 999.6 |
| 20260831114503 | 76 | 153 | 1.7 | 4.3 | 0.00 | 0.00 | 0.00 | 93 | 999.7 |
| 20260831114002 | 76 | 169 | 1.7 | 2.6 | 0.00 | 0.00 | 0.00 | 93 | 999.7 |
| 20260831113503 | 77 | 170 | 1.7 | 4.3 | 0.00 | 0.00 | 0.00 | 93 | 999.7 |
| 20260831113002 | 77 | 287 | 1.7 | 4.3 | 0.00 | 0.00 | 0.00 | 93 | 999.6 |
| 20260831112503 | 77 | 176 | 1.7 | 4.3 | 0.00 | 0.00 | 0.00 | 93 | 999.6 |
| 20260831112002 | 77 | 258 | 2.6 | 5.2 | 0.00 | 0.00 | 0.00 | 93 | 999.7 |
| 20260831111503 | 77 | 256 | 1.7 | 5.2 | 0.00 | 0.00 | 0.00 | 93 | 999.6 |
| 20260831111003 | 77 | 304 | 1.7 | 2.6 | 0.00 | 0.00 | 0.00 | 93 | 999.6 |
| 20260831110502 | 77 | 235 | 2.6 | 4.3 | 0.00 | 0.00 | 0.00 | 93 | 999.4 |
| 20260831110003 | 77 | 253 | 2.6 | 4.3 | 0.00 | 0.00 | 0.00 | 93 | 999.4 |
| 20260831105503 | 77 | 227 | 2.6 | 5.2 | 0.00 | 0.00 | 0.00 | 93 | 999.5 |
| 20260831105003 | 77 | 273 | 1.7 | 4.3 | 0.00 | 0.00 | 0.00 | 93 | 999.4 |
| 20260831104503 | 77 | 192 | 2.6 | 4.3 | 0.00 | 0.00 | 0.00 | 93 | 999.5 |
| 20260831104002 | 77 | 276 | 1.7 | 4.3 | 0.00 | 0.00 | 0.00 | 93 | 999.5 |
| 20260831103503 | 77 | 169 | 1.7 | 6.1 | 0.00 | 0.00 | 0.00 | 93 | 999.6 |
| 20260831102502 | 77 | 186 | 1.7 | 4.3 | 0.00 | 0.00 | 0.00 | 93 | 999.6 |
| 20260831102002 | 77 | 167 | 1.7 | 5.2 | 0.00 | 0.00 | 0.00 | 93 | 999.5 |
| 20260831101003 | 77 | 152 | 2.6 | 5.2 | 0.00 | 0.00 | 0.00 | 92 | 999.5 |
| 20260831100503 | 77 | 176 | 4.3 | 6.1 | 0.00 | 0.00 | 0.00 | 92 | 999.6 |
| 20260831100002 | 77 | 255 | 2.6 | 6.1 | 0.00 | 0.00 | 0.00 | 92 | 999.4 |
| 20260831095502 | 77 | 202 | 2.6 | 5.2 | 0.00 | 0.00 | 0.00 | 92 | 999.5 |
| 20260831095003 | 77 | 161 | 1.7 | 4.3 | 0.00 | 0.00 | 0.00 | 92 | 999.6 |
| 20260831094503 | 77 | 172 | 2.6 | 7.0 | 0.00 | 0.00 | 0.00 | 92 | 999.5 |
| 20260831094002 | 77 | 149 | 2.6 | 6.1 | 0.00 | 0.00 | 0.00 | 92 | 999.5 |
| 20260831093503 | 77 | 197 | 2.6 | 5.2 | 0.00 | 0.00 | 0.00 | 91 | 999.4 |
| 20260831093002 | 77 | 160 | 2.6 | 6.1 | 0.00 | 0.00 | 0.00 | 91 | 999.4 |
| 20260831092503 | 77 | 219 | 3.5 | 7.0 | 0.00 | 0.00 | 0.00 | 91 | 999.3 |
| 20260831092003 | 77 | 249 | 2.6 | 5.2 | 0.00 | 0.00 | 0.00 | 91 | 999.5 |
| 20260831091502 | 77 | 162 | 2.6 | 7.8 | 0.00 | 0.00 | 0.00 | 90 | 999.4 |
| 20260831091003 | 78 | 151 | 2.6 | 6.1 | 0.00 | 0.00 | 0.00 | 90 | 999.3 |
| 20260831090502 | 78 | 268 | 2.6 | 6.1 | 0.00 | 0.00 | 0.00 | 89 | 999.3 |
| 20260831090003 | 78 | 140 | 1.7 | 4.3 | 0.00 | 0.00 | 0.00 | 89 | 999.5 |
| 20260831085502 | 78 | 179 | 2.6 | 7.0 | 0.00 | 0.00 | 0.00 | 88 | 999.4 |
| 20260831085003 | 78 | 153 | 4.3 | 7.0 | 0.00 | 0.00 | 0.00 | 87 | 999.4 |
| 20260831084502 | 78 | 174 | 1.7 | 4.3 | 0.00 | 0.00 | 0.00 | 87 | 999.6 |
| 20260831084003 | 78 | 174 | 2.6 | 6.1 | 0.00 | 0.00 | 0.00 | 86 | 999.5 |
| 20260831083502 | 78 | 185 | 3.5 | 6.1 | 0.00 | 0.00 | 0.00 | 86 | 999.5 |
| 20260831082503 | 78 | 169 | 2.6 | 6.1 | 0.00 | 0.00 | 0.00 | 84 | 999.4 |
| 20260831082002 | 78 | 203 | 2.6 | 5.2 | 0.00 | 0.00 | 0.00 | 84 | 999.4 |
| 20260831081503 | 78 | 154 | 2.6 | 5.2 | 0.00 | 0.00 | 0.00 | 83 | 999.5 |
| 20260831081003 | 79 | 175 | 1.7 | 7.0 | 0.00 | 0.00 | 0.00 | 82 | 999.4 |
| 20260831080002 | 79 | 223 | 2.6 | 4.3 | 0.00 | 0.00 | 0.00 | 82 | 999.4 |
| 20260831075502 | 79 | 181 | 2.6 | 4.3 | 0.00 | 0.00 | 0.00 | 82 | 999.3 |
| 20260831075002 | 79 | 257 | 3.5 | 6.1 | 0.00 | 0.00 | 0.00 | 82 | 999.4 |
| 20260831074502 | 79 | 185 | 2.6 | 4.3 | 0.00 | 0.00 | 0.00 | 82 | 999.1 |
| 20260831074003 | 79 | 201 | 2.6 | 4.3 | 0.00 | 0.00 | 0.00 | 82 | 999.2 |
| 20260831073502 | 80 | 167 | 1.7 | 6.1 | 0.00 | 0.00 | 0.00 | 82 | 999.3 |
| 20260831073003 | 80 | 154 | 1.7 | 5.2 | 0.00 | 0.00 | 0.00 | 82 | 999.4 |
| 20260831072503 | 80 | 179 | 2.6 | 5.2 | 0.00 | 0.00 | 0.00 | 81 | 999.4 |
| 20260831072002 | 80 | 199 | 2.6 | 5.2 | 0.00 | 0.00 | 0.00 | 81 | 999.6 |
| 20260831071502 | 80 | 142 | 1.7 | 6.1 | 0.00 | 0.00 | 0.00 | 80 | 999.5 |
| 20260831071003 | 80 | 167 | 2.6 | 5.2 | 0.00 | 0.00 | 0.00 | 80 | 999.5 |
| 20260831070503 | 80 | 169 | 1.7 | 2.6 | 0.00 | 0.00 | 0.00 | 80 | 999.3 |
| 20260831070003 | 81 | 133 | 2.6 | 4.3 | 0.00 | 0.00 | 0.00 | 79 | 999.6 |
| 20260831065502 | 81 | 152 | 1.7 | 4.3 | 0.00 | 0.00 | 0.00 | 79 | 999.4 |
| 20260831065003 | 81 | 194 | 2.6 | 6.1 | 0.00 | 0.00 | 0.00 | 78 | 999.4 |
| 20260831064503 | 81 | 142 | 1.7 | 2.6 | 0.00 | 0.00 | 0.00 | 78 | 999.6 |
| 20260831064002 | 81 | 160 | 2.6 | 4.3 | 0.00 | 0.00 | 0.00 | 78 | 999.6 |
| 20260831063502 | 81 | 188 | 2.6 | 4.3 | 0.00 | 0.00 | 0.00 | 77 | 999.7 |
| 20260831063003 | 82 | 151 | 3.5 | 6.1 | 0.00 | 0.00 | 0.00 | 77 | 999.7 |
| 20260831062002 | 82 | 165 | 3.5 | 5.2 | 0.00 | 0.00 | 0.00 | 76 | 999.5 |
| 20260831061502 | 82 | 156 | 2.6 | 5.2 | 0.00 | 0.00 | 0.00 | 76 | 999.6 |
| 20260831061003 | 82 | 193 | 2.6 | 5.2 | 0.00 | 0.00 | 0.00 | 75 | 999.5 |
| 20260831060503 | 82 | 204 | 2.6 | 5.2 | 0.00 | 0.00 | 0.00 | 75 | 999.5 |
| 20260831060002 | 83 | 164 | 2.6 | 5.2 | 0.00 | 0.00 | 0.00 | 74 | 999.6 |
| 20260831055503 | 83 | 196 | 4.3 | 7.0 | 0.00 | 0.00 | 0.00 | 73 | 999.6 |
| 20260831055003 | 83 | 180 | 3.5 | 6.1 | 0.00 | 0.00 | 0.00 | 73 | 999.5 |
| 20260831054503 | 83 | 162 | 2.6 | 6.1 | 0.00 | 0.00 | 0.00 | 72 | 999.6 |
| 20260831053503 | 83 | 175 | 3.5 | 7.0 | 0.00 | 0.00 | 0.00 | 70 | 999.5 |
| 20260831053003 | 83 | 225 | 2.6 | 4.3 | 0.00 | 0.00 | 0.00 | 70 | 999.5 |
| 20260831052503 | 83 | 154 | 2.6 | 4.3 | 0.00 | 0.00 | 0.00 | 69 | 999.2 |
| 20260831051003 | 84 | 197 | 2.6 | 5.2 | 0.00 | 0.00 | 0.00 | 68 | 999.3 |
| 20260831050502 | 84 | 171 | 2.6 | 6.1 | 0.00 | 0.00 | 0.00 | 68 | 999.2 |
| 20260831050002 | 84 | 156 | 2.6 | 6.1 | 0.00 | 0.00 | 0.00 | 67 | 999.4 |
| 20260831045503 | 85 | 235 | 2.6 | 5.2 | 0.00 | 0.00 | 0.00 | 67 | 999.3 |
| 20260831045003 | 85 | 204 | 3.5 | 7.0 | 0.00 | 0.00 | 0.00 | 66 | 999.0 |
| 20260831044502 | 85 | 208 | 2.6 | 7.8 | 0.00 | 0.00 | 0.00 | 66 | 999.1 |
| 20260831043503 | 85 | 171 | 4.3 | 7.0 | 0.00 | 0.00 | 0.00 | 65 | 999.0 |
| 20260831043002 | 85 | 166 | 5.2 | 8.7 | 0.00 | 0.00 | 0.00 | 65 | 999.1 |
| 20260831042503 | 85 | 182 | 4.3 | 7.0 | 0.00 | 0.00 | 0.00 | 65 | 999.1 |
| 20260831042008 | 85 | 180 | 5.2 | 7.8 | 0.00 | 0.00 | 0.00 | 65 | 999.1 |
| 20260831041003 | 86 | 193 | 4.3 | 7.0 | 0.00 | 0.00 | 0.00 | 65 | 999.0 |
| 20260831040503 | 86 | 166 | 4.3 | 7.8 | 0.00 | 0.00 | 0.00 | 65 | 999.1 |
| 20260831040002 | 86 | 182 | 4.3 | 8.7 | 0.00 | 0.00 | 0.00 | 65 | 999.0 |
| 20260831035503 | 86 | 145 | 4.3 | 8.7 | 0.00 | 0.00 | 0.00 | 65 | 998.9 |
| 20260831035003 | 86 | 201 | 4.3 | 7.8 | 0.00 | 0.00 | 0.00 | 64 | 998.9 |
| 20260831034502 | 86 | 179 | 6.1 | 8.7 | 0.00 | 0.00 | 0.00 | 64 | 998.8 |
| 20260831033002 | 86 | 164 | 5.2 | 10.4 | 0.00 | 0.00 | 0.00 | 64 | 998.8 |
| 20260831032503 | 86 | 150 | 2.6 | 6.1 | 0.00 | 0.00 | 0.00 | 65 | 998.5 |
| 20260831032003 | 86 | 176 | 4.3 | 7.8 | 0.00 | 0.00 | 0.00 | 65 | 998.4 |
| 20260831031502 | 87 | 150 | 3.5 | 6.1 | 0.00 | 0.00 | 0.00 | 65 | 998.5 |
| 20260831031003 | 87 | 174 | 2.6 | 6.1 | 0.00 | 0.00 | 0.00 | 65 | 998.7 |
| 20260831030002 | 87 | 177 | 4.3 | 7.0 | 0.00 | 0.00 | 0.00 | 64 | 998.3 |
| 20260831025502 | 87 | 173 | 4.3 | 7.8 | 0.00 | 0.00 | 0.00 | 63 | 998.1 |
| 20260831025003 | 87 | 201 | 3.5 | 8.7 | 0.00 | 0.00 | 0.00 | 63 | 998.2 |
| 20260831024502 | 88 | 210 | 2.6 | 11.3 | 0.00 | 0.00 | 0.00 | 62 | 998.1 |
| 20260831024002 | 88 | 127 | 2.6 | 7.0 | 0.00 | 0.00 | 0.00 | 59 | 997.9 |
| 20260831023503 | 88 | 192 | 4.3 | 7.0 | 0.00 | 0.00 | 0.00 | 56 | 998.0 |
| 20260831023003 | 88 | 178 | 3.5 | 6.1 | 0.00 | 0.00 | 0.00 | 55 | 997.9 |
| 20260831022503 | 88 | 121 | 4.3 | 10.4 | 0.00 | 0.00 | 0.00 | 53 | 997.9 |
| 20260831022003 | 88 | 136 | 0.9 | 2.6 | 0.00 | 0.00 | 0.00 | 53 | 997.6 |
| 20260831021502 | 88 | 147 | 0.9 | 1.7 | 0.00 | 0.00 | 0.00 | 53 | 997.6 |
| 20260831021003 | 88 | 149 | 1.7 | 1.7 | 0.00 | 0.00 | 0.00 | 52 | 997.4 |
| 20260831020502 | 88 | 138 | 0.9 | 1.7 | 0.00 | 0.00 | 0.00 | 53 | 997.3 |
| 20260831020003 | 89 | 153 | 0.9 | 2.6 | 0.00 | 0.00 | 0.00 | 52 | 997.4 |
| 20260831015503 | 89 | 163 | 0.9 | 1.7 | 0.00 | 0.00 | 0.00 | 52 | 997.2 |
| 20260831015003 | 89 | 135 | 0.9 | 4.3 | 0.00 | 0.00 | 0.00 | 52 | 997.3 |
| 20260831014503 | 89 | 144 | 1.7 | 4.3 | 0.00 | 0.00 | 0.00 | 51 | 997.3 |
| 20260831014003 | 89 | 130 | 0.9 | 1.7 | 0.00 | 0.00 | 0.00 | 51 | 997.3 |
| 20260831013503 | 90 | 111 | 0.0 | 0.9 | 0.00 | 0.00 | 0.00 | 50 | 997.0 |
| 20260831013003 | 90 | 140 | 0.9 | 1.7 | 0.00 | 0.00 | 0.00 | 50 | 996.9 |
| 20260831012503 | 90 | 133 | 0.9 | 1.7 | 0.00 | 0.00 | 0.00 | 50 | 997.0 |
| 20260831011503 | 91 | 108 | 0.9 | 1.7 | 0.00 | 0.00 | 0.00 | 49 | 996.9 |
| 20260831010003 | 91 | 143 | 0.9 | 2.6 | 0.00 | 0.00 | 0.00 | 48 | 997.1 |
| 20260831005503 | 92 | 154 | 1.7 | 2.6 | 0.00 | 0.00 | 0.00 | 48 | 996.9 |
| 20260831005003 | 92 | 104 | 0.9 | 4.3 | 0.00 | 0.00 | 0.00 | 48 | 996.9 |
| 20260831004503 | 92 | 141 | 0.9 | 2.6 | 0.00 | 0.00 | 0.00 | 47 | 996.9 |
| 20260831003503 | 93 | 148 | 1.7 | 2.6 | 0.00 | 0.00 | 0.00 | 47 | 996.9 |
| 20260831003003 | 93 | 147 | 2.6 | 5.2 | 0.00 | 0.00 | 0.00 | 46 | 996.7 |
| 20260831002503 | 93 | 179 | 2.6 | 5.2 | 0.00 | 0.00 | 0.00 | 46 | 996.9 |
| 20260831002003 | 93 | 122 | 1.7 | 5.2 | 0.00 | 0.00 | 0.00 | 46 | 996.8 |
| 20260831001503 | 93 | 175 | 2.6 | 5.2 | 0.00 | 0.00 | 0.00 | 46 | 997.0 |
| 20260831001003 | 94 | 35 | 1.7 | 2.6 | 0.00 | 0.00 | 0.00 | 46 | 997.0 |
| 20260831000003 | 94 | 146 | 2.6 | 7.0 | 0.00 | 0.00 | 0.00 | 45 | 997.0 |
| 20260830235003 | 95 | 172 | 2.6 | 5.2 | 0.00 | 0.00 | 0.00 | 45 | 996.8 |
| 20260830234503 | 96 | 172 | 3.5 | 6.1 | 0.00 | 0.00 | 0.00 | 44 | 996.9 |
| 20260830233503 | 97 | 180 | 1.7 | 5.2 | 0.00 | 0.00 | 0.00 | 42 | 997.0 |
| 20260830233003 | 96 | 109 | 1.7 | 5.2 | 0.00 | 0.00 | 0.00 | 42 | 996.8 |
| 20260830231504 | 97 | 206 | 2.6 | 5.2 | 0.00 | 0.00 | 0.00 | 41 | 996.9 |
| 20260830231003 | 96 | 176 | 2.6 | 6.1 | 0.00 | 0.00 | 0.00 | 40 | 996.9 |
| 20260830230004 | 97 | 177 | 2.6 | 4.3 | 0.00 | 0.00 | 0.00 | 40 | 996.9 |
| 20260830225503 | 96 | 182 | 2.6 | 5.2 | 0.00 | 0.00 | 0.00 | 40 | 997.2 |
| 20260830225003 | 96 | 216 | 3.5 | 5.2 | 0.00 | 0.00 | 0.00 | 42 | 997.0 |
| 20260830224003 | 97 | 134 | 2.6 | 6.1 | 0.00 | 0.00 | 0.00 | 40 | 997.0 |
| 20260830223503 | 97 | 190 | 4.3 | 10.4 | 0.00 | 0.00 | 0.00 | 41 | 997.1 |
| 20260830223003 | 97 | 163 | 3.5 | 6.1 | 0.00 | 0.00 | 0.00 | 42 | 997.1 |
| 20260830222503 | 98 | 184 | 2.6 | 5.2 | 0.00 | 0.00 | 0.00 | 42 | 997.0 |
| 20260830221503 | 98 | 186 | 1.7 | 4.3 | 0.00 | 0.00 | 0.00 | 41 | 997.2 |
| 20260830221002 | 97 | 172 | 2.6 | 5.2 | 0.00 | 0.00 | 0.00 | 41 | 997.2 |
| 20260830220503 | 97 | 150 | 2.6 | 7.0 | 0.00 | 0.00 | 0.00 | 41 | 997.3 |
| 20260830220003 | 98 | 167 | 1.7 | 4.3 | 0.00 | 0.00 | 0.00 | 42 | 997.3 |
| 20260830214003 | 97 | 181 | 3.5 | 7.0 | 0.00 | 0.00 | 0.00 | 43 | 997.5 |
| 20260830213502 | 97 | 278 | 2.6 | 7.0 | 0.00 | 0.00 | 0.00 | 42 | 997.6 |
| 20260830213034 | 97 | 173 | 4.3 | 7.0 | 0.00 | 0.00 | 0.00 | 43 | 997.5 |
| 20260830212503 | 97 | 191 | 2.6 | 4.3 | 0.00 | 0.00 | 0.00 | 44 | 997.6 |
| 20260830212002 | 96 | 162 | 3.5 | 7.0 | 0.00 | 0.00 | 0.00 | 45 | 997.9 |
| 20260830211536 | 97 | 175 | 4.3 | 7.0 | 0.00 | 0.00 | 0.00 | 44 | 997.9 |
| 20260830211003 | 97 | 170 | 3.5 | 7.0 | 0.00 | 0.00 | 0.00 | 44 | 998.2 |
| 20260830210503 | 95 | 149 | 2.6 | 7.8 | 0.00 | 0.00 | 0.00 | 46 | 998.0 |
| 20260830210035 | 97 | 195 | 4.3 | 7.8 | 0.00 | 0.00 | 0.00 | 44 | 998.0 |
| 20260830205502 | 96 | 162 | 1.7 | 4.3 | 0.00 | 0.00 | 0.00 | 46 | 998.2 |
| 20260830205003 | 96 | 157 | 2.6 | 7.0 | 0.00 | 0.00 | 0.00 | 46 | 998.4 |
| 20260830204512 | 97 | 222 | 4.3 | 7.0 | 0.00 | 0.00 | 0.00 | 44 | 998.4 |
| 20260830204003 | 96 | 79 | 3.5 | 6.1 | 0.00 | 0.00 | 0.00 | 45 | 998.4 |
| 20260830203503 | 96 | 163 | 3.5 | 6.1 | 0.00 | 0.00 | 0.00 | 47 | 998.6 |
| 20260830203002 | 96 | 175 | 4.3 | 7.8 | 0.00 | 0.00 | 0.00 | 47 | 998.6 |
| 20260830202502 | 96 | 189 | 2.6 | 11.3 | 0.00 | 0.00 | 0.00 | 45 | 998.6 |
| 20260830202002 | 97 | 195 | 1.7 | 7.0 | 0.00 | 0.00 | 0.00 | 43 | 998.5 |
| 20260830201504 | 96 | 176 | 3.5 | 7.8 | 0.00 | 0.00 | 0.00 | 46 | 998.6 |
| 20260830201003 | 97 | 209 | 2.6 | 6.1 | 0.00 | 0.00 | 0.00 | 46 | 998.7 |
| 20260830200003 | 97 | 194 | 4.3 | 7.8 | 0.00 | 0.00 | 0.00 | 47 | 998.9 |
| 20260830195502 | 96 | 180 | 0.9 | 5.2 | 0.00 | 0.00 | 0.00 | 46 | 998.8 |
| 20260830195002 | 95 | 94 | 2.6 | 7.0 | 0.00 | 0.00 | 0.00 | 49 | 999.0 |
| 20260830194502 | 97 | 184 | 4.3 | 10.4 | 0.00 | 0.00 | 0.00 | 45 | 999.1 |
| 20260830194002 | 96 | 171 | 1.7 | 6.1 | 0.00 | 0.00 | 0.00 | 48 | 999.2 |
| 20260830193002 | 95 | 192 | 2.6 | 6.1 | 0.00 | 0.00 | 0.00 | 47 | 999.3 |
| 20260830192503 | 95 | 195 | 2.6 | 6.1 | 0.00 | 0.00 | 0.00 | 47 | 999.2 |
| 20260830192002 | 96 | 184 | 2.6 | 6.1 | 0.00 | 0.00 | 0.00 | 48 | 999.2 |
| 20260830191003 | 94 | 181 | 6.1 | 11.3 | 0.00 | 0.00 | 0.00 | 49 | 999.5 |
| 20260830190502 | 94 | 165 | 3.5 | 6.1 | 0.00 | 0.00 | 0.00 | 52 | 999.5 |
| 20260830185502 | 94 | 217 | 4.3 | 6.1 | 0.00 | 0.00 | 0.00 | 52 | 999.8 |
| 20260830185002 | 94 | 170 | 2.6 | 7.0 | 0.00 | 0.00 | 0.00 | 51 | 999.8 |
| 20260830184502 | 94 | 196 | 2.6 | 4.3 | 0.00 | 0.00 | 0.00 | 50 | 999.9 |
| 20260830184003 | 94 | 140 | 1.7 | 7.8 | 0.00 | 0.00 | 0.00 | 53 | 1000.0 |
| 20260830183502 | 94 | 170 | 4.3 | 7.0 | 0.00 | 0.00 | 0.00 | 53 | 1000.0 |
| 20260830183003 | 94 | 193 | 5.2 | 8.7 | 0.00 | 0.00 | 0.00 | 54 | 1000.1 |
| 20260830182503 | 92 | 155 | 1.7 | 6.1 | 0.00 | 0.00 | 0.00 | 54 | 1000.3 |
| 20260830182002 | 93 | 156 | 4.3 | 7.0 | 0.00 | 0.00 | 0.00 | 56 | 1000.3 |
| 20260830181502 | 92 | 174 | 5.2 | 11.3 | 0.00 | 0.00 | 0.00 | 56 | 1000.3 |
| 20260830181003 | 93 | 139 | 1.7 | 7.0 | 0.00 | 0.00 | 0.00 | 54 | 1000.3 |
| 20260830180503 | 93 | 147 | 1.7 | 6.1 | 0.00 | 0.00 | 0.00 | 55 | 1000.6 |
| 20260830180003 | 92 | 145 | 2.6 | 6.1 | 0.00 | 0.00 | 0.00 | 58 | 1000.8 |
| 20260830175502 | 92 | 227 | 4.3 | 7.8 | 0.00 | 0.00 | 0.00 | 56 | 1000.8 |
| 20260830175002 | 91 | 141 | 3.5 | 7.0 | 0.00 | 0.00 | 0.00 | 57 | 1000.9 |
| 20260830174502 | 93 | 254 | 5.2 | 8.7 | 0.00 | 0.00 | 0.00 | 54 | 1001.0 |
| 20260830174002 | 92 | 181 | 2.6 | 5.2 | 0.00 | 0.00 | 0.00 | 55 | 1001.1 |
| 20260830173002 | 91 | 205 | 4.3 | 8.7 | 0.00 | 0.00 | 0.00 | 56 | 1001.2 |
| 20260830172502 | 91 | 231 | 5.2 | 8.7 | 0.00 | 0.00 | 0.00 | 56 | 1001.1 |
| 20260830172003 | 91 | 157 | 1.7 | 6.1 | 0.00 | 0.00 | 0.00 | 59 | 1001.1 |
| 20260830171502 | 92 | 176 | 5.2 | 7.8 | 0.00 | 0.00 | 0.00 | 58 | 1001.3 |
| 20260830170502 | 90 | 232 | 3.5 | 7.0 | 0.00 | 0.00 | 0.00 | 59 | 1001.3 |
| 20260830170002 | 90 | 296 | 3.5 | 6.1 | 0.00 | 0.00 | 0.00 | 59 | 1001.6 |
| 20260830165503 | 90 | 177 | 5.2 | 7.8 | 0.00 | 0.00 | 0.00 | 60 | 1001.4 |
| 20260830165002 | 91 | 174 | 5.2 | 7.0 | 0.00 | 0.00 | 0.00 | 60 | 1001.5 |
| 20260830164002 | 89 | 190 | 3.5 | 5.2 | 0.00 | 0.00 | 0.00 | 64 | 1001.5 |
| 20260830162503 | 89 | 165 | 1.7 | 6.1 | 0.00 | 0.00 | 0.00 | 64 | 1001.6 |
| 20260830162003 | 89 | 142 | 2.6 | 5.2 | 0.00 | 0.00 | 0.00 | 63 | 1001.6 |
| 20260830161502 | 89 | 162 | 1.7 | 2.6 | 0.00 | 0.00 | 0.00 | 65 | 1001.8 |
| 20260830161003 | 87 | 257 | 2.6 | 6.1 | 0.00 | 0.00 | 0.00 | 67 | 1001.7 |
| 20260830160502 | 87 | 272 | 3.5 | 6.1 | 0.00 | 0.00 | 0.00 | 66 | 1001.7 |
| 20260830160003 | 87 | 267 | 4.3 | 6.1 | 0.00 | 0.00 | 0.00 | 66 | 1001.7 |
| 20260830155003 | 86 | 208 | 2.6 | 7.0 | 0.00 | 0.00 | 0.00 | 69 | 1001.6 |
| 20260830154003 | 86 | 200 | 2.6 | 6.1 | 0.00 | 0.00 | 0.00 | 70 | 1001.6 |
| 20260830153502 | 86 | 248 | 4.3 | 7.0 | 0.00 | 0.00 | 0.00 | 70 | 1001.4 |
| 20260830153002 | 85 | 218 | 2.6 | 6.1 | 0.00 | 0.00 | 0.00 | 70 | 1001.4 |
| 20260830152003 | 85 | 260 | 2.6 | 7.0 | 0.00 | 0.00 | 0.00 | 71 | 1001.4 |
| 20260830151502 | 85 | 176 | 3.5 | 6.1 | 0.00 | 0.00 | 0.00 | 73 | 1001.5 |
| 20260830151003 | 84 | 155 | 4.3 | 7.0 | 0.00 | 0.00 | 0.00 | 75 | 1001.3 |
| 20260830150502 | 84 | 159 | 3.5 | 5.2 | 0.00 | 0.00 | 0.00 | 75 | 1001.4 |